Wetbulb
66.12 65.84 65.07 63.76 64.07 63.36 63.61 65.45 66.14 66.21 66.36 66.30 67.05 67.54 68.20 68.11 68.37 68.40 65.79 65.22 65.15 64.42
65.43 65.97 66.72 66.64 66.43 64.51 66.33 65.53 66.13 65.83 66.35 66.50 66.45 66.99 67.75 67.76 66.38 67.13 66.20 65.91 62.92 63.42
64.56 65.72 65.97 65.58 65.25 65.75 64.32 66.30 64.81 65.76 64.89 65.52 66.50 66.99 67.90 67.40 66.10 64.16 64.99 65.51 61.95 61.33
63.61 64.71 65.29 65.27 65.61 64.22 65.94 63.92 65.41 65.46 65.83 65.19 64.99 66.52 67.07 66.15 65.31 63.92 63.43 62.43 61.42 59.92
63.18 64.03 64.70 65.04 65.67 65.90 65.18 63.97 62.84 64.62 65.29 64.99 65.20 64.79 65.76 65.16 64.06 62.86 62.87 61.96 61.33 59.70
62.51 63.27 63.86 64.24 64.58 65.98 66.12 65.47 63.78 63.44 62.70 63.39 65.21 65.46 65.86 63.37 64.69 64.46 64.09 62.58 61.01 60.99
61.95 62.71 64.11 64.37 64.12 64.37 65.13 65.20 65.35 64.84 63.47 62.51 64.00 65.53 66.04 66.10 65.87 64.76 63.81 64.07 64.60 64.48
61.92 62.44 63.77 63.89 64.03 63.26 63.04 63.35 63.60 64.02 64.42 64.30 65.00 65.01 66.13 66.52 66.62 66.13 65.92 66.07 65.23 66.18
61.16 61.18 62.21 63.51 63.84 63.56 62.80 62.57 62.63 62.37 62.80 62.75 60.50 49.04 54.16 62.86 65.29 65.31 64.22 61.96 62.43 61.76
60.68 60.53 61.08 62.07 62.14 62.45 63.47 64.21 63.43 62.84 62.78 62.09 61.32 48.11 50.41 55.42 64.73 64.92 65.19 64.92 64.19 61.69
59.24 60.54 61.04 61.24 62.10 63.79 64.32 64.32 63.80 62.73 62.76 62.42 56.85 47.04 49.99 54.39 65.99 66.11 64.92 64.62 64.13 63.56
58.31 59.67 60.80 61.16 62.72 64.05 64.43 64.88 63.80 63.19 62.90 62.38 59.87 45.20 45.79 52.03 64.86 63.23 63.06 62.68 63.19 63.19
59.01 59.26 60.18 62.09 63.47 64.24 64.32 63.78 62.81 62.66 63.16 58.09 62.11 44.04 43.25 50.41 59.92 61.31 59.52 60.32 58.79 46.13
60.35 60.57 62.42 64.67 64.69 64.00 63.21 63.16 62.62 61.62 62.72 62.35 61.54 56.43 42.97 43.23 58.92 57.82 56.52 55.29 54.93 54.25
MSLP
1008.85 1008.92 1008.97 1009.47 1009.72 1009.78 1009.50 1009.32 1009.23 1009.16 1009.10 1009.15 1009.27 1009.63 1010.29 1010.82 1011.31 1011.70 1012.49 1012.70 1013.42 1014.28
1009.07 1009.03 1009.37 1009.44 1009.73 1009.80 1009.59 1009.62 1009.52 1009.33 1009.48 1009.48 1009.83 1010.32 1010.80 1011.30 1011.62 1012.34 1012.92 1013.45 1014.61 1015.15
1009.04 1009.00 1009.04 1009.16 1009.39 1009.76 1010.08 1009.80 1009.83 1009.98 1009.68 1010.23 1010.41 1010.84 1011.10 1011.66 1012.25 1012.84 1013.80 1014.50 1015.09 1015.80
1009.07 1009.25 1009.22 1009.29 1009.50 1010.05 1010.02 1010.43 1010.29 1010.18 1010.33 1010.65 1011.03 1011.31 1011.54 1012.15 1012.53 1013.05 1013.97 1014.68 1015.35 1016.25
1009.24 1009.42 1009.46 1009.51 1009.75 1010.17 1010.25 1010.65 1011.17 1011.08 1011.02 1011.27 1011.45 1011.92 1011.99 1012.22 1012.94 1013.39 1013.72 1014.34 1015.48 1016.29
1009.41 1009.64 1009.88 1009.95 1010.08 1010.08 1010.27 1010.71 1011.31 1011.43 1011.89 1011.84 1011.72 1011.92 1012.29 1012.88 1013.00 1013.54 1014.24 1014.93 1015.54 1016.30
1009.54 1009.81 1009.92 1010.01 1009.97 1010.13 1010.31 1010.53 1010.89 1011.47 1011.86 1012.01 1011.82 1012.24 1012.42 1012.60 1013.24 1013.76 1014.30 1014.92 1015.43 1016.02
1009.70 1009.95 1010.06 1010.11 1010.15 1010.29 1010.48 1010.64 1010.90 1011.34 1011.68 1011.85 1011.76 1012.49 1012.60 1012.94 1013.29 1013.71 1014.15 1014.63 1015.10 1015.72
1009.60 1009.84 1010.24 1010.45 1010.61 1010.64 1010.72 1010.87 1011.08 1011.28 1011.82 1012.38 1012.96 1012.96 1012.98 1013.18 1013.55 1014.04 1014.43 1014.92 1015.35 1015.86
1009.36 1009.71 1010.20 1010.45 1010.71 1010.95 1011.16 1011.32 1011.42 1011.85 1012.48 1013.14 1013.68 1013.89 1013.77 1013.63 1013.69 1013.91 1014.40 1014.86 1015.21 1015.47
1008.95 1009.40 1009.93 1010.34 1010.71 1011.28 1011.60 1011.73 1011.92 1012.14 1012.71 1013.52 1014.43 1014.43 1014.30 1014.20 1014.39 1014.53 1014.69 1014.88 1015.07 1015.74
1008.45 1009.07 1009.70 1010.23 1010.83 1011.35 1011.71 1011.94 1012.16 1012.37 1012.77 1013.40 1014.51 1014.95 1015.00 1015.01 1014.75 1014.87 1015.03 1015.39 1015.60 1016.00
1007.89 1008.64 1009.39 1010.07 1010.82 1011.34 1011.70 1011.94 1011.93 1012.36 1012.83 1013.27 1013.93 1014.81 1015.11 1015.04 1014.16 1014.89 1015.24 1015.74 1016.45 1016.76
1007.58 1008.37 1009.10 1009.90 1010.70 1011.25 1011.57 1011.62 1011.83 1012.19 1012.74 1013.17 1013.64 1014.71 1015.10 1015.20 1015.06 1014.81 1015.12 1015.45 1016.16 1016.87
Wind_Speed
8 8 7 8 4 3 4 6 7 7 7 7 10 10 10 9 9 11 10 13 8 8
5 8 6 7 6 4 4 4 8 8 9 10 11 12 12 9 11 12 10 10 8 8
5 6 7 6 6 5 6 8 6 9 9 9 12 12 13 11 9 10 8 8 10 7
5 7 6 6 9 7 8 7 8 8 10 11 10 11 11 11 11 11 10 9 9 8
5 7 6 7 9 9 7 9 6 7 9 9 10 9 12 12 12 12 11 9 10 10
6 7 8 6 9 7 9 11 7 7 9 8 8 9 10 9 11 12 11 11 10 11
8 8 7 8 9 10 9 10 8 10 7 5 8 11 11 14 13 12 10 12 15 15
8 9 8 8 8 9 9 9 11 9 8 9 7 7 11 11 12 12 13 11 11 8
10 10 8 8 8 8 9 9 9 10 10 9 8 10 10 11 11 12 10 9 10 9
12 11 10 10 10 9 8 7 8 9 12 11 8 8 9 8 8 9 9 9 9 10
13 12 12 11 11 10 8 8 7 9 10 10 6 6 7 6 9 8 9 8 7 9
14 13 13 12 11 10 9 8 8 8 8 9 8 2 3 5 8 8 7 6 6 7
14 14 14 12 11 10 9 9 8 8 7 5 8 5 1 5 5 7 6 5 5 9
13 13 12 11 10 10 9 9 8 8 8 8 8 8 6 6 6 8 7 7 7 7
Wind_Direction
16 65 67 80 83 62 44 52 80 107 111 127 140 141 129 127 126 119 121 107 91 97
60 68 77 92 100 78 58 91 82 90 79 112 115 120 125 128 119 120 111 93 97 106
87 78 91 69 73 101 96 68 103 86 91 89 103 116 121 120 116 112 111 112 101 96
100 97 87 82 73 81 109 79 82 79 88 90 95 116 112 118 127 117 131 118 118 116
122 104 94 89 88 103 92 92 84 86 100 91 105 116 124 128 135 133 122 123 125 132
134 112 108 89 101 113 114 124 110 89 95 104 104 122 127 137 142 141 148 139 140 143
145 128 129 129 118 113 116 122 125 118 105 120 112 118 134 129 130 133 141 157 158 153
152 142 145 133 123 112 117 112 118 115 108 105 109 131 136 134 134 143 138 151 155 147
164 156 145 141 133 128 124 123 119 118 99 81 80 21 58 115 121 123 107 105 108 119
171 162 158 156 146 134 126 126 118 111 106 100 93 28 50 105 107 109 117 126 139 130
177 167 167 164 150 144 146 138 137 130 125 116 96 16 21 63 118 122 117 121 128 113
177 173 171 170 158 160 163 159 159 144 142 136 134 141 356 334 155 133 129 138 104 143
177 174 176 173 167 170 172 173 179 163 168 136 148 163 281 299 167 147 149 143 134 67
175 174 175 167 169 174 189 175 203 175 171 171 165 164 193 247 274 160 172 160 163 144